Showing default

PAZ, 43215

Orbit data source: Space-Track

PAZ, 43215 is a payload satellite owned by Hisdesat (ES) in SSO that was launched on Thu, 22 Feb 2018 UTC via an FALCON 9 launch vehicle from the Air Force Western Test Range (AFWTR). Payload-class satellites include a variety of spacecraft equipped with specific instruments for various scientific and technological missions. These include communications satellites like Starlink; space stations such as the ISS; scientific satellites like the Hubble; Earth observation satellites from companies like Planet Labs, Umbra, and HawkEye 360; GPS; miniature CubeSats for education and research; and military/defense satellites.

Loading next visibility...
Identifier
43215, 2018-020A
Orbit
SSO
Country
Flag of ESES / SPN
Related business
Manufacturer
Airbus Barajas
Mission
Operational Defense Radar Imaging
Bus & Motor
SEOSAR, Unknown motor
Mass
1,400 kg wet, ~1,200 kg dry
Launch date (UTC)
2018-02-22 (8 years ago)
Launch vehicle
FALCON 9
Launch site
Air Force Western Test Range (AFWTR)
Object type
Payload
Rocket body
Debris
Shape & HBR
Hex Cyl, 5.0 m
Radar Cross Section
10.871 m², Large (>1 m²)

Expand to show TLE details & history
Last TLE update: 19 hours ago

TLE from 19 hours ago
0 PAZ
1 43215U 18020A   25260.28069708  .00001635  00000-0  81010-4 0  9990
2 43215  97.4472 266.5970 0001697  88.7374 271.4055 15.19154487419570
Epoch: 2025-09-17T06:44Z
TLE epoch observation values (Epoch: 2025-09-17T06:44:12.227Z)
Latitude
-0.00003°
Longitude
169.08715°
Altitude
511.454 km
Speed
7.608 km/s
True Right ascension
17h 46m 23s
True Declination
0° 00' 00"
Sunlit
Object was in daylight at epoch
Visualization orbit readout
Latitude
Unknown
Longitude
Unknown
Altitude
Unknown
Speed
Unknown
Apparent Right ascension
Unknown
Apparent Declination
Unknown
Sunlit
N/A
Visualization observer readout
Local Sidereal Time
19:00:03
Azimuth
Unknown
Elevation
Unknown
Doppler factor
Unknown
Orbital elements
Apogee altitude
506.532 km
Perigee altitude
504.195 km
Semi-major axis
6,883.5 km
Eccentricity
0.00017
Inclination
97.4472°
RAAN
266.597°
Arg. of periapsis
88.7374°
True anomaly
271.38606°
Mean anomaly
271.4055°
Eccentric anomaly
271.39578°
Mean motion
3.8004 °/min
Orbital period
94.73 mins
BSTAR
0.00008101
Loading maneuver chart data...
Computing Atmospheric mass density...
Loading historical data...
Loading historical data...
Loading historical data...
Loading historical data...
Loading historical data...
Loading historical data...
Loading historical data...
Other satellites on launch #20 in the year 2018 (2018-02-22 UTC)

Documentation

Showing up to 5 results
|